{"data":{"norad_id":56094,"intl_designator":"2023-046B","name":"STARLINK-6109","alt_names":[],"object_type":"PAYLOAD","status":"ACTIVE","operator":null,"country":"US","launch_date":"2023-03-29","launch_site_code":"AFETR","launch_vehicle":null,"mission":null,"orbit_class":"UNKNOWN","rcs_meters":null,"size_class":null,"mass_kg":null,"dimensions":null,"purposes":["comms"],"wikipedia_slug":null,"has_3d_model":false,"image_url":null,"decayed_at":null,"tle_current":{"epoch":"2026-09-20T22:23:58.605216Z","epoch_age_seconds":68755,"freshness":"FRESH","line1":"1 56094U 23046B   26263.93331719  .00000744  00000+0  36542-4 0  9992","line2":"2 56094  43.0015 138.7446 0001335 248.4214 111.6495 15.27581420191899","mean_motion":15.2758142,"eccentricity":0.0001335,"inclination_deg":43.0015,"raan_deg":138.7446,"arg_perigee_deg":248.4214,"mean_anomaly_deg":111.6495,"bstar":3.6542e-5,"rev_number":19189,"period_min":94.266661085731,"perigee_km":482.12887627592,"apogee_km":483.96081182829,"semimajor_km":6861.1818440521,"source":"CELESTRAK","updated_at":"2026-09-21T09:00:33.361634Z"}}}